STARLINK-1592 (46139 NORAD) Tracking and Keplerian Element Data

This shows tracking and keplerian element data for the satellite.

Feedback or suggestion? Click here.




ElementValue
Catalog46139
NameSTARLINK-1592
Epoch Orbit176
Epoch Day331.91668981
Epoch Year2020
RAAN335.2145
Inclination53
Eccentricity0.0001557
Argument of Perigee70.2478
Mean Anonmoly160.9287
Mean Motion15.05563341
Decay Rate0.00037991
L11 46139U 20057Y 20331.91668981 .00037991 00000-0 26137-2 0 9994
L22 46139 53.0000 335.2145 0001557 70.2478 160.9287 15.05563341 1762

Live tracking and technical data element details for STARLINK-1592 (NORAD 46139). STARLINK-1592 can be tracked NOW for your location showing map with azimuth and elevation plus other details from your city location.

Track the satellite on the map from your city or location and see movement details for azimuth, elevation, latitude, longitude, range, height, and movement on the map or in text.







IsCatalogInMostPopularTable: catalog: 46139, numindb: 13
Update: records affected: 1



GetName: 46139 STARLINK-1592

Hit Count: updated at: Fri, 27 Nov 2020 14:21:36 GMT